,,PA_Meas_PMT16A,,PR_Meas_QMR101_102,,RH_Meas_QMH101,,SR_Meas_QMS101,,TA_Meas_QMH101,,GenWind,,GenWind,
time,status,PA,status,PR,status,RH,status,SR,status,TA,status,DirAvg,status,SpdAvg,
2009-11-24, 00:00:05,VALID,919.445,VALID,0,VALID,92.5711,VALID,0,VALID,19.1554,VALID,23,VALID,0.361328,
2009-11-24, 00:01:05,VALID,919.489,VALID,0,VALID,92.5483,VALID,0,VALID,19.1359,VALID,23,VALID,0.133594,
2009-11-24, 00:02:05,VALID,919.419,VALID,0,VALID,92.5559,VALID,0,VALID,19.1164,VALID,23,VALID,0.904297,
2009-11-24, 00:03:05,VALID,919.443,VALID,0,VALID,92.5559,VALID,0,VALID,19.1164,VALID,23,VALID,0.884766,
2009-11-24, 00:04:05,VALID,919.38,VALID,0,VALID,92.7617,VALID,0,VALID,19.0774,VALID,23,VALID,1.1,
2009-11-24, 00:05:05,VALID,919.397,VALID,0,VALID,92.3119,VALID,0,VALID,19.0579,VALID,15,VALID,1.75156,
2009-11-24, 00:06:05,VALID,919.366,VALID,0,VALID,92.3882,VALID,0,VALID,19.1164,VALID,15,VALID,0.471875,
2009-11-24, 00:07:05,VALID,919.355,VALID,0,VALID,92.068,VALID,0,VALID,19.1554,VALID,16,VALID,1.03047,
2009-11-24, 00:08:05,VALID,919.343,VALID,0,VALID,92.0375,VALID,0,VALID,19.1749,VALID,16,VALID,0.931641,
2009-11-24, 00:09:05,VALID,919.29,VALID,0,VALID,92.007,VALID,0,VALID,19.2139,VALID,31,VALID,1.01602,
2009-11-24, 00:10:05,VALID,919.335,VALID,0,VALID,91.6563,VALID,0,VALID,19.2528,VALID,21,VALID,1.52773,
2009-11-24, 00:11:05,VALID,919.318,VALID,0,VALID,91.4352,VALID,0,VALID,19.2723,VALID,6,VALID,1.6543,
2009-11-24, 00:12:05,VALID,919.286,VALID,0,VALID,91.5496,VALID,0,VALID,19.2918,VALID,3,VALID,1.57656,
2009-11-24, 00:13:05,VALID,919.262,VALID,0,VALID,91.3971,VALID,0,VALID,19.3113,VALID,18,VALID,1.72812,
2009-11-24, 00:14:05,VALID,919.242,VALID,0,VALID,91.3057,VALID,0,VALID,19.3308,VALID,8,VALID,1.60234,
2009-11-24, 00:15:05,VALID,919.233,VALID,0,VALID,91.1074,VALID,0,VALID,19.3503,VALID,8,VALID,1.8582,
2009-11-24, 00:16:05,VALID,919.227,VALID,0,VALID,90.955,VALID,0,VALID,19.3893,VALID,8,VALID,1.67383,
2009-11-24, 00:17:05,VALID,919.19,VALID,0,VALID,91.0236,VALID,0,VALID,19.4088,VALID,8,VALID,1.26445,
2009-11-24, 00:18:05,VALID,919.215,VALID,0,VALID,91.1532,VALID,0,VALID,19.4088,VALID,8,VALID,1.32813,
2009-11-24, 00:19:05,VALID,919.18,VALID,0,VALID,91.4124,VALID,0,VALID,19.3893,VALID,8,VALID,1.42617,
2009-11-24, 00:20:05,VALID,919.149,VALID,0,VALID,91.7173,VALID,0,VALID,19.3113,VALID,8,VALID,1.07773,
2009-11-24, 00:21:05,VALID,919.152,VALID,0,VALID,91.9994,VALID,0,VALID,19.2723,VALID,8,VALID,1.225,
2009-11-24, 00:22:05,VALID,919.148,VALID,0,VALID,92.1137,VALID,0,VALID,19.2528,VALID,6,VALID,1.40391,
2009-11-24, 00:23:05,VALID,919.145,VALID,0,VALID,91.8622,VALID,0,VALID,19.2528,VALID,6,VALID,1.19687,
2009-11-24, 00:24:05,VALID,919.144,VALID,0,VALID,91.7707,VALID,0,VALID,19.2723,VALID,6,VALID,1.41797,
2009-11-24, 00:25:05,VALID,919.1,VALID,0,VALID,91.8317,VALID,0,VALID,19.2723,VALID,6,VALID,1.1793,
2009-11-24, 00:26:05,VALID,919.113,VALID,0,VALID,91.8164,VALID,0,VALID,19.2723,VALID,6,VALID,1.11055,
2009-11-24, 00:27:05,VALID,919.078,VALID,0,VALID,92.0223,VALID,0,VALID,19.2723,VALID,6,VALID,1.17695,
2009-11-24, 00:28:05,VALID,919.1,VALID,0,VALID,92.2205,VALID,0,VALID,19.2723,VALID,6,VALID,0.975391,
2009-11-24, 00:29:05,VALID,919.11,VALID,0,VALID,92.3196,VALID,0,VALID,19.2528,VALID,6,VALID,1.03516,
2009-11-24, 00:30:05,VALID,919.09,VALID,0,VALID,92.5254,VALID,0,VALID,19.2124,VALID,6,VALID,1.42109,
2009-11-24, 00:31:05,VALID,919.061,VALID,0,VALID,92.7084,VALID,0,VALID,19.2334,VALID,6,VALID,1.07891,
2009-11-24, 00:32:05,VALID,919.036,VALID,0,VALID,92.9828,VALID,0,VALID,19.1749,VALID,6,VALID,1.74492,
2009-11-24, 00:33:05,VALID,919.019,VALID,0,VALID,93.0895,VALID,0,VALID,19.1344,VALID,6,VALID,1.45625,
2009-11-24, 00:34:05,VALID,918.981,VALID,0,VALID,93.2649,VALID,0,VALID,19.1359,VALID,6,VALID,1.08008,
2009-11-24, 00:35:05,VALID,918.984,VALID,0,VALID,93.2649,VALID,0,VALID,19.1359,VALID,6,VALID,1.63203,
2009-11-24, 00:36:05,VALID,919.01,VALID,0,VALID,92.9981,VALID,0,VALID,19.1359,VALID,3,VALID,1.21719,
2009-11-24, 00:37:05,VALID,918.978,VALID,0,VALID,93.0209,VALID,0,VALID,19.1539,VALID,3,VALID,0.828125,
2009-11-24, 00:38:05,VALID,918.92,VALID,0,VALID,93.0895,VALID,0,VALID,19.1749,VALID,3,VALID,1.29844,
2009-11-24, 00:39:05,VALID,918.908,VALID,0,VALID,93.2191,VALID,0,VALID,19.1554,VALID,3,VALID,1.50898,
2009-11-24, 00:40:05,VALID,918.874,VALID,0,VALID,93.6003,VALID,0,VALID,19.1149,VALID,3,VALID,1.81445,
2009-11-24, 00:41:05,VALID,918.885,VALID,0,VALID,93.8061,VALID,0,VALID,19.0969,VALID,25,VALID,1.74609,
2009-11-24, 00:42:05,VALID,918.912,VALID,0,VALID,93.6003,VALID,0,VALID,19.0969,VALID,26,VALID,1.70469,
2009-11-24, 00:43:05,VALID,918.881,VALID,0,VALID,93.3792,VALID,0,VALID,19.0969,VALID,27,VALID,1.21992,
2009-11-24, 00:44:05,VALID,918.853,VALID,0,VALID,93.3487,VALID,0,VALID,19.0969,VALID,29,VALID,2.1457,
2009-11-24, 00:45:05,VALID,918.898,VALID,0,VALID,92.9294,VALID,0,VALID,19.1164,VALID,16,VALID,1.2625,
2009-11-24, 00:46:05,VALID,918.891,VALID,0,VALID,92.8989,VALID,0,VALID,19.1554,VALID,13,VALID,1.76563,
2009-11-24, 00:47:05,VALID,918.881,VALID,0,VALID,92.6321,VALID,0,VALID,19.1554,VALID,13,VALID,0.890625,
2009-11-24, 00:48:05,VALID,918.865,VALID,0,VALID,92.6855,VALID,0.107441,VALID,19.1944,VALID,1,VALID,1.34336,
2009-11-24, 00:49:05,VALID,918.833,VALID,0,VALID,92.9676,VALID,0,VALID,19.1734,VALID,1,VALID,1.44023,
2009-11-24, 00:50:05,VALID,918.823,VALID,0,VALID,93.1429,VALID,0,VALID,19.1539,VALID,18,VALID,2.08984,
2009-11-24, 00:51:05,VALID,918.831,VALID,0,VALID,93.2268,VALID,0,VALID,19.1554,VALID,33,VALID,1.79414,
2009-11-24, 00:52:05,VALID,918.797,VALID,0,VALID,93.1429,VALID,0,VALID,19.1149,VALID,20,VALID,2.03984,
2009-11-24, 00:53:05,VALID,918.785,VALID,0,VALID,93.0362,VALID,0,VALID,19.1359,VALID,23,VALID,1.66602,
2009-11-24, 00:54:05,VALID,918.8,VALID,0,VALID,92.9294,VALID,0.107441,VALID,19.1554,VALID,6,VALID,1.38945,
2009-11-24, 00:55:05,VALID,918.724,VALID,0,VALID,92.5788,VALID,0,VALID,19.1554,VALID,15,VALID,2.09687,
2009-11-24, 00:56:05,VALID,918.773,VALID,0,VALID,92.6779,VALID,0,VALID,19.1944,VALID,12,VALID,1.58008,
2009-11-24, 00:57:05,VALID,918.763,VALID,0,VALID,92.4263,VALID,0,VALID,19.1944,VALID,17,VALID,1.65195,
2009-11-24, 00:58:05,VALID,918.728,VALID,0,VALID,92.1671,VALID,0,VALID,19.1944,VALID,11,VALID,1.93672,
2009-11-24, 00:59:05,VALID,918.759,VALID,0,VALID,92.0375,VALID,0,VALID,19.2139,VALID,41,VALID,1.44648,
2009-11-24, 01:00:05,VALID,918.773,VALID,0,VALID,92.0451,VALID,0,VALID,19.2334,VALID,41,VALID,1.29648,
2009-11-24, 01:01:05,VALID,918.746,VALID,0,VALID,92.0451,VALID,0,VALID,19.2334,VALID,41,VALID,1.60859,
2009-11-24, 01:02:05,VALID,918.748,VALID,0,VALID,91.9689,VALID,0,VALID,19.2334,VALID,49,VALID,1.15078,
2009-11-24, 01:03:05,VALID,918.764,VALID,0,VALID,91.8774,VALID,0,VALID,19.2528,VALID,49,VALID,1.17734,
2009-11-24, 01:04:05,VALID,918.766,VALID,0,VALID,92.2357,VALID,0,VALID,19.2528,VALID,49,VALID,1.14961,
2009-11-24, 01:05:05,VALID,918.743,VALID,0,VALID,92.411,VALID,0,VALID,19.2334,VALID,49,VALID,1.45273,
2009-11-24, 01:06:05,VALID,918.771,VALID,0,VALID,92.5864,VALID,0,VALID,19.2139,VALID,49,VALID,1.1457,
2009-11-24, 01:07:05,VALID,918.748,VALID,0,VALID,92.8075,VALID,0,VALID,19.1944,VALID,49,VALID,1.38203,
2009-11-24, 01:08:05,VALID,918.715,VALID,0,VALID,92.9599,VALID,0,VALID,19.1749,VALID,48,VALID,1.12617,
2009-11-24, 01:09:05,VALID,918.756,VALID,0,VALID,92.8685,VALID,0,VALID,19.1749,VALID,11,VALID,1.09219,
2009-11-24, 01:10:05,VALID,918.71,VALID,0,VALID,92.8837,VALID,0,VALID,19.1344,VALID,46,VALID,1.16719,
2009-11-24, 01:11:05,VALID,918.691,VALID,0,VALID,92.6702,VALID,0,VALID,19.1359,VALID,30,VALID,1.54531,
2009-11-24, 01:12:05,VALID,918.657,VALID,0,VALID,92.3043,VALID,0,VALID,19.1554,VALID,33,VALID,1.46211,
2009-11-24, 01:13:05,VALID,918.662,VALID,0,VALID,92.1595,VALID,0,VALID,19.1749,VALID,28,VALID,1.73633,
2009-11-24, 01:14:05,VALID,918.661,VALID,0,VALID,91.824,VALID,0,VALID,19.1944,VALID,15,VALID,1.67539,
2009-11-24, 01:15:05,VALID,918.699,VALID,0,VALID,91.7935,VALID,0,VALID,19.2334,VALID,65,VALID,1.10312,
2009-11-24, 01:16:05,VALID,918.665,VALID,0,VALID,91.5725,VALID,0,VALID,19.2334,VALID,65,VALID,0.86875,
2009-11-24, 01:17:05,VALID,918.636,VALID,0,VALID,91.5039,VALID,0,VALID,19.2139,VALID,28,VALID,1.34258,
2009-11-24, 01:18:05,VALID,918.607,VALID,0,VALID,91.4886,VALID,0,VALID,19.2124,VALID,47,VALID,1.79727,
2009-11-24, 01:19:05,VALID,918.601,VALID,0,VALID,91.42,VALID,0,VALID,19.2139,VALID,33,VALID,1.86797,
2009-11-24, 01:20:05,VALID,918.572,VALID,0,VALID,91.3819,VALID,0,VALID,19.2528,VALID,22,VALID,1.65078,
2009-11-24, 01:21:05,VALID,918.547,VALID,0,VALID,91.1837,VALID,0,VALID,19.2514,VALID,37,VALID,1.29688,
2009-11-24, 01:22:05,VALID,918.511,VALID,0,VALID,90.955,VALID,0,VALID,19.3113,VALID,44,VALID,1.75352,
2009-11-24, 01:23:05,VALID,918.519,VALID,0,VALID,90.7415,VALID,0,VALID,19.3099,VALID,47,VALID,1.13672,
2009-11-24, 01:24:05,VALID,918.511,VALID,0,VALID,90.6729,VALID,0,VALID,19.3294,VALID,47,VALID,1.53906,
2009-11-24, 01:25:05,VALID,918.529,VALID,0,VALID,90.7644,VALID,0,VALID,19.3503,VALID,47,VALID,0.879297,
2009-11-24, 01:26:05,VALID,918.508,VALID,0,VALID,90.6043,VALID,0,VALID,19.3503,VALID,47,VALID,1.02852,
2009-11-24, 01:27:05,VALID,918.464,VALID,0,VALID,90.6653,VALID,0,VALID,19.3489,VALID,47,VALID,0.889063,
2009-11-24, 01:28:05,VALID,918.423,VALID,0,VALID,90.7415,VALID,0,VALID,19.3308,VALID,47,VALID,1.37148,
2009-11-24, 01:29:05,VALID,918.389,VALID,0,VALID,90.8635,VALID,0,VALID,19.3308,VALID,47,VALID,1.2457,
2009-11-24, 01:30:05,VALID,918.404,VALID,0,VALID,90.9169,VALID,0,VALID,19.3308,VALID,47,VALID,0.603125,
2009-11-24, 01:31:05,VALID,918.379,VALID,0,VALID,90.8101,VALID,0,VALID,19.3308,VALID,46,VALID,0.941406,
2009-11-24, 01:32:05,VALID,918.354,VALID,0,VALID,90.7949,VALID,0,VALID,19.3113,VALID,47,VALID,0.605859,
2009-11-24, 01:33:05,VALID,918.32,VALID,0,VALID,90.8101,VALID,0,VALID,19.2918,VALID,47,VALID,0.860547,
2009-11-24, 01:34:05,VALID,918.3,VALID,0,VALID,90.8711,VALID,0,VALID,19.2528,VALID,47,VALID,0.812891,
2009-11-24, 01:35:05,VALID,918.287,VALID,0,VALID,91.0465,VALID,0,VALID,19.2319,VALID,47,VALID,0.484766,
2009-11-24, 01:36:05,VALID,918.249,VALID,0,VALID,91.1151,VALID,0,VALID,19.2124,VALID,46,VALID,0.772266,
2009-11-24, 01:37:05,VALID,918.266,VALID,0,VALID,91.1684,VALID,0,VALID,19.2139,VALID,46,VALID,0.791797,
2009-11-24, 01:38:05,VALID,918.271,VALID,0,VALID,91.2218,VALID,0,VALID,19.1929,VALID,46,VALID,0.654688,
2009-11-24, 01:39:05,VALID,918.289,VALID,0,VALID,91.2675,VALID,0,VALID,19.2139,VALID,47,VALID,0.158984,
2009-11-24, 01:40:05,VALID,918.287,VALID,0,VALID,91.3743,VALID,0,VALID,19.1734,VALID,47,VALID,0.403906,
2009-11-24, 01:41:05,VALID,918.266,VALID,0,VALID,91.3361,VALID,0,VALID,19.1944,VALID,47,VALID,0.497266,
2009-11-24, 01:42:05,VALID,918.264,VALID,0,VALID,91.3666,VALID,0,VALID,19.1944,VALID,47,VALID,0.533203,
2009-11-24, 01:43:05,VALID,918.22,VALID,0,VALID,91.481,VALID,0,VALID,19.1734,VALID,46,VALID,0.334375,
2009-11-24, 01:44:05,VALID,918.205,VALID,0,VALID,91.4429,VALID,0,VALID,19.1749,VALID,47,VALID,0.867188,
2009-11-24, 01:45:05,VALID,918.213,VALID,0,VALID,91.6563,VALID,0,VALID,19.1554,VALID,47,VALID,0.517578,
2009-11-24, 01:46:05,VALID,918.202,VALID,0,VALID,91.8317,VALID,0,VALID,19.1554,VALID,47,VALID,0.675,
2009-11-24, 01:47:05,VALID,918.189,VALID,0,VALID,91.8469,VALID,0,VALID,19.1359,VALID,47,VALID,0.805469,
2009-11-24, 01:48:05,VALID,918.184,VALID,0,VALID,91.4734,VALID,0,VALID,19.1749,VALID,47,VALID,0.658203,
2009-11-24, 01:49:05,VALID,918.215,VALID,0,VALID,91.3819,VALID,0,VALID,19.1944,VALID,47,VALID,0.638672,
2009-11-24, 01:50:05,VALID,918.221,VALID,0,VALID,91.3285,VALID,0,VALID,19.1944,VALID,47,VALID,0.649219,
2009-11-24, 01:51:05,VALID,918.195,VALID,0,VALID,91.4276,VALID,0,VALID,19.1929,VALID,47,VALID,0.989453,
2009-11-24, 01:52:05,VALID,918.192,VALID,0,VALID,91.6258,VALID,0,VALID,19.1944,VALID,47,VALID,0.141406,
2009-11-24, 01:53:05,VALID,918.193,VALID,0,VALID,91.42,VALID,0,VALID,19.1944,VALID,47,VALID,0.772656,
2009-11-24, 01:54:05,VALID,918.232,VALID,0,VALID,91.4352,VALID,0,VALID,19.2139,VALID,47,VALID,0.516016,
2009-11-24, 01:55:05,VALID,918.245,VALID,0,VALID,91.3057,VALID,0,VALID,19.2124,VALID,47,VALID,0.248047,
2009-11-24, 01:56:05,VALID,918.238,VALID,0,VALID,91.3057,VALID,0,VALID,19.2319,VALID,47,VALID,0.255078,
2009-11-24, 01:57:05,VALID,918.247,VALID,0,VALID,91.2142,VALID,0,VALID,19.2514,VALID,47,VALID,0.346875,
2009-11-24, 01:58:05,VALID,918.253,VALID,0,VALID,91.2142,VALID,0,VALID,19.2918,VALID,47,VALID,0.0398437,
2009-11-24, 01:59:05,VALID,918.245,VALID,0,VALID,91.1608,VALID,0,VALID,19.2918,VALID,47,VALID,0.276172,
2009-11-24, 02:00:05,VALID,918.253,VALID,0,VALID,91.3514,VALID,0,VALID,19.2709,VALID,47,VALID,0.0992187,
2009-11-24, 02:01:05,VALID,918.254,VALID,0,VALID,91.5953,VALID,0,VALID,19.2918,VALID,47,VALID,0,
2009-11-24, 02:02:05,VALID,918.229,VALID,0,VALID,91.5953,VALID,0,VALID,19.2514,VALID,47,VALID,0.566797,
2009-11-24, 02:03:05,VALID,918.23,VALID,0,VALID,90.7491,VALID,0,VALID,19.2124,VALID,47,VALID,0.914844,
2009-11-24, 02:04:05,VALID,918.248,VALID,0,VALID,91.2447,VALID,0,VALID,19.2723,VALID,47,VALID,0.221875,
2009-11-24, 02:05:05,VALID,918.216,VALID,0,VALID,90.3604,VALID,0,VALID,19.2514,VALID,70,VALID,1.09531,
2009-11-24, 02:06:05,VALID,918.206,VALID,0,VALID,91.0617,VALID,0,VALID,19.2904,VALID,83,VALID,0.543359,
2009-11-24, 02:07:05,VALID,918.194,VALID,0,VALID,91.0922,VALID,0,VALID,19.2918,VALID,83,VALID,0.941797,
2009-11-24, 02:08:05,VALID,918.187,VALID,0,VALID,90.3756,VALID,0,VALID,19.3503,VALID,315,VALID,0.960156,
2009-11-24, 02:09:05,VALID,918.181,VALID,0,VALID,89.781,VALID,0,VALID,19.3879,VALID,29,VALID,1.27773,
2009-11-24, 02:10:05,VALID,918.194,VALID,0,VALID,89.8801,VALID,0,VALID,19.4268,VALID,307,VALID,1.24805,
2009-11-24, 02:11:05,VALID,918.174,VALID,0,VALID,89.9258,VALID,0,VALID,19.4478,VALID,226,VALID,0.0785156,
2009-11-24, 02:12:05,VALID,918.155,VALID,0,VALID,89.8038,VALID,0,VALID,19.4268,VALID,226,VALID,0.432422,
2009-11-24, 02:13:05,VALID,918.143,VALID,0,VALID,90.0402,VALID,0,VALID,19.4074,VALID,225,VALID,0.110937,
2009-11-24, 02:14:05,VALID,918.138,VALID,0,VALID,90.1545,VALID,0,VALID,19.3879,VALID,225,VALID,0,
2009-11-24, 02:15:05,VALID,918.162,VALID,0,VALID,90.3222,VALID,0,VALID,19.3893,VALID,225,VALID,0.368359,
2009-11-24, 02:16:05,VALID,918.129,VALID,0,VALID,90.6043,VALID,0,VALID,19.3698,VALID,225,VALID,0.373437,
2009-11-24, 02:17:04,VALID,918.085,VALID,0,VALID,90.711,VALID,0,VALID,19.3099,VALID,225,VALID,0.883594,
2009-11-24, 02:18:04,VALID,918.058,VALID,0,VALID,90.9778,VALID,0.107441,VALID,19.2904,VALID,225,VALID,0.342578,
2009-11-24, 02:19:04,VALID,918.065,VALID,0,VALID,91.077,VALID,0,VALID,19.2723,VALID,72,VALID,0.883984,
2009-11-24, 02:20:04,VALID,918.056,VALID,0,VALID,91.2218,VALID,0,VALID,19.2528,VALID,32,VALID,1.16367,
2009-11-24, 02:21:04,VALID,918.029,VALID,0,VALID,91.077,VALID,0,VALID,19.2528,VALID,31,VALID,0.119141,
2009-11-24, 02:22:04,VALID,918.024,VALID,0,VALID,91.0312,VALID,0,VALID,19.2723,VALID,31,VALID,0.691406,
2009-11-24, 02:23:04,VALID,917.993,VALID,0,VALID,91.3438,VALID,0,VALID,19.2514,VALID,31,VALID,1.33047,
2009-11-24, 02:24:04,VALID,918.017,VALID,0,VALID,91.3209,VALID,0,VALID,19.2319,VALID,31,VALID,0.835156,
2009-11-24, 02:25:04,VALID,918.04,VALID,0,VALID,91.3209,VALID,0,VALID,19.2528,VALID,31,VALID,0.205859,
2009-11-24, 02:26:04,VALID,918.03,VALID,0,VALID,90.833,VALID,0,VALID,19.2723,VALID,279,VALID,1.06133,
2009-11-24, 02:27:04,VALID,917.973,VALID,0,VALID,90.5662,VALID,0,VALID,19.4074,VALID,15,VALID,1.31523,
2009-11-24, 02:28:04,VALID,918.029,VALID,0,VALID,90.2384,VALID,0,VALID,19.4673,VALID,20,VALID,0.679297,
2009-11-24, 02:29:04,VALID,918.01,VALID,0,VALID,90.185,VALID,0,VALID,19.4868,VALID,20,VALID,0.303516,
2009-11-24, 02:30:04,VALID,918.026,VALID,0,VALID,89.9944,VALID,0,VALID,19.5063,VALID,20,VALID,0.237109,
2009-11-24, 02:31:04,VALID,918.03,VALID,0,VALID,89.9639,VALID,0,VALID,19.5243,VALID,191,VALID,1.13945,
2009-11-24, 02:32:04,VALID,918.02,VALID,0,VALID,89.7352,VALID,0,VALID,19.5843,VALID,245,VALID,0.435547,
2009-11-24, 02:33:04,VALID,917.978,VALID,0,VALID,90.0402,VALID,0,VALID,19.5633,VALID,319,VALID,0.638281,
2009-11-24, 02:34:04,VALID,918,VALID,0,VALID,90.0554,VALID,0,VALID,19.5438,VALID,29,VALID,0.841797,
2009-11-24, 02:35:04,VALID,917.99,VALID,0,VALID,90.1088,VALID,0,VALID,19.5648,VALID,271,VALID,0.388281,
2009-11-24, 02:36:04,VALID,917.982,VALID,0,VALID,89.9411,VALID,0,VALID,19.5843,VALID,271,VALID,0.334375,
2009-11-24, 02:37:04,VALID,917.977,VALID,0,VALID,89.7657,VALID,0,VALID,19.5633,VALID,271,VALID,0.387109,
2009-11-24, 02:38:04,VALID,918.002,VALID,0,VALID,89.8115,VALID,0,VALID,19.5828,VALID,271,VALID,0.835547,
2009-11-24, 02:39:04,VALID,917.99,VALID,0,VALID,89.5904,VALID,0,VALID,19.5828,VALID,261,VALID,0.726953,
2009-11-24, 02:40:04,VALID,918.01,VALID,0,VALID,89.2397,VALID,0,VALID,19.6623,VALID,255,VALID,0.8875,
2009-11-24, 02:41:04,VALID,917.974,VALID,0,VALID,89.0339,VALID,0,VALID,19.6998,VALID,252,VALID,0.723828,
2009-11-24, 02:42:04,VALID,917.985,VALID,0,VALID,88.95,VALID,0,VALID,19.7388,VALID,252,VALID,0.326953,
2009-11-24, 02:43:04,VALID,917.994,VALID,0,VALID,89.1711,VALID,0,VALID,19.7403,VALID,241,VALID,0.971484,
2009-11-24, 02:44:04,VALID,917.911,VALID,0,VALID,88.2029,VALID,0,VALID,19.7388,VALID,237,VALID,0.986328,
2009-11-24, 02:45:04,VALID,917.937,VALID,0,VALID,89.0949,VALID,0,VALID,19.8183,VALID,237,VALID,0.348828,
2009-11-24, 02:46:04,VALID,917.902,VALID,0,VALID,88.7671,VALID,0,VALID,19.7793,VALID,237,VALID,0.505469,
2009-11-24, 02:47:04,VALID,917.932,VALID,0,VALID,88.7747,VALID,0,VALID,19.7583,VALID,237,VALID,0.715234,
2009-11-24, 02:48:04,VALID,917.915,VALID,0,VALID,88.6527,VALID,0,VALID,19.7388,VALID,237,VALID,0.955469,
2009-11-24, 02:49:04,VALID,917.914,VALID,0,VALID,88.0352,VALID,0,VALID,19.8363,VALID,280,VALID,0.917188,
2009-11-24, 02:50:04,VALID,917.917,VALID,0,VALID,88.4316,VALID,0,VALID,19.8573,VALID,280,VALID,0.470703,
2009-11-24, 02:51:04,VALID,917.922,VALID,0,VALID,87.7531,VALID,0,VALID,19.7973,VALID,260,VALID,1.13437,
2009-11-24, 02:52:04,VALID,917.917,VALID,0,VALID,88.9271,VALID,0,VALID,19.7973,VALID,347,VALID,0.935156,
2009-11-24, 02:53:04,VALID,917.921,VALID,0,VALID,88.7899,VALID,0.107441,VALID,19.7388,VALID,347,VALID,0.255469,
2009-11-24, 02:54:04,VALID,917.907,VALID,0,VALID,88.9805,VALID,0,VALID,19.7403,VALID,347,VALID,0.24375,
2009-11-24, 02:55:04,VALID,917.889,VALID,0,VALID,89.5675,VALID,0,VALID,19.7208,VALID,347,VALID,0.960938,
2009-11-24, 02:56:04,VALID,917.883,VALID,0,VALID,89.5904,VALID,0,VALID,19.6623,VALID,347,VALID,0.296484,
2009-11-24, 02:57:04,VALID,917.85,VALID,0,VALID,89.8267,VALID,0,VALID,19.6023,VALID,347,VALID,0,
2009-11-24, 02:58:04,VALID,917.855,VALID,0,VALID,90.0783,VALID,0,VALID,19.5828,VALID,347,VALID,0.267188,
2009-11-24, 02:59:04,VALID,917.769,VALID,0,VALID,89.2931,VALID,0,VALID,19.5828,VALID,211,VALID,1.57852,
2009-11-24, 03:00:04,VALID,917.835,VALID,0,VALID,89.5294,VALID,0,VALID,19.6428,VALID,345,VALID,1.21406,
2009-11-24, 03:01:04,VALID,917.807,VALID,0,VALID,89.4837,VALID,0,VALID,19.6218,VALID,35,VALID,1.31172,
2009-11-24, 03:02:04,VALID,917.803,VALID,0,VALID,89.2702,VALID,0,VALID,19.6608,VALID,291,VALID,0.514063,
2009-11-24, 03:03:04,VALID,917.808,VALID,0,VALID,89.3312,VALID,0,VALID,19.6608,VALID,291,VALID,0.545313,
2009-11-24, 03:04:04,VALID,917.8,VALID,0,VALID,89.2473,VALID,0,VALID,19.6803,VALID,291,VALID,0.563672,
2009-11-24, 03:05:04,VALID,917.798,VALID,0,VALID,89.5294,VALID,0,VALID,19.6998,VALID,291,VALID,0.551172,
2009-11-24, 03:06:04,VALID,917.79,VALID,0,VALID,89.9029,VALID,0,VALID,19.6608,VALID,291,VALID,0.588281,
2009-11-24, 03:07:04,VALID,917.756,VALID,0,VALID,89.9716,VALID,0,VALID,19.6218,VALID,291,VALID,0.334766,
2009-11-24, 03:08:04,VALID,917.777,VALID,0,VALID,89.9563,VALID,0,VALID,19.6218,VALID,290,VALID,0.676172,
2009-11-24, 03:09:04,VALID,917.759,VALID,0,VALID,90.1926,VALID,0,VALID,19.6218,VALID,52,VALID,0.583203,
2009-11-24, 03:10:04,VALID,917.804,VALID,0,VALID,90.1621,VALID,0,VALID,19.6233,VALID,52,VALID,0.300781,
2009-11-24, 03:11:04,VALID,917.76,VALID,0,VALID,90.0554,VALID,0,VALID,19.6428,VALID,52,VALID,0.478906,
2009-11-24, 03:12:04,VALID,917.749,VALID,0,VALID,90.0402,VALID,0,VALID,19.6413,VALID,52,VALID,0.579687,
2009-11-24, 03:13:04,VALID,917.739,VALID,0,VALID,90.2231,VALID,0,VALID,19.6608,VALID,52,VALID,0.498437,
2009-11-24, 03:14:04,VALID,917.75,VALID,0,VALID,89.9944,VALID,0,VALID,19.6413,VALID,52,VALID,0.464063,
2009-11-24, 03:15:04,VALID,917.753,VALID,0,VALID,90.0554,VALID,0,VALID,19.6608,VALID,52,VALID,0.371094,
2009-11-24, 03:16:04,VALID,917.71,VALID,0,VALID,89.9639,VALID,0,VALID,19.6803,VALID,291,VALID,0.939453,
2009-11-24, 03:17:04,VALID,917.672,VALID,0,VALID,89.8191,VALID,0,VALID,19.6998,VALID,157,VALID,1.27656,
2009-11-24, 03:18:04,VALID,917.709,VALID,0,VALID,89.8953,VALID,0.107441,VALID,19.7388,VALID,80,VALID,0.34375,
2009-11-24, 03:19:04,VALID,917.691,VALID,0,VALID,89.6666,VALID,0,VALID,19.7598,VALID,80,VALID,0.7375,
2009-11-24, 03:20:04,VALID,917.688,VALID,0,VALID,89.0186,VALID,0,VALID,19.8183,VALID,250,VALID,0.665234,
2009-11-24, 03:21:04,VALID,917.727,VALID,0,VALID,89.7276,VALID,0,VALID,19.8753,VALID,240,VALID,0.288281,
2009-11-24, 03:22:04,VALID,917.731,VALID,0,VALID,89.7962,VALID,0.107441,VALID,19.8558,VALID,240,VALID,0.0417969,
2009-11-24, 03:23:04,VALID,917.755,VALID,0,VALID,89.7047,VALID,0,VALID,19.8363,VALID,240,VALID,0.460156,
2009-11-24, 03:24:04,VALID,917.695,VALID,0,VALID,89.7429,VALID,0,VALID,19.8558,VALID,232,VALID,1.66797,
2009-11-24, 03:25:04,VALID,917.744,VALID,0,VALID,89.6361,VALID,0,VALID,19.8768,VALID,238,VALID,0.973047,
2009-11-24, 03:26:04,VALID,917.723,VALID,0,VALID,89.7581,VALID,0,VALID,19.8768,VALID,246,VALID,0.165625,
2009-11-24, 03:27:04,VALID,917.717,VALID,0,VALID,90.0402,VALID,0,VALID,19.8363,VALID,246,VALID,0.983594,
2009-11-24, 03:28:04,VALID,917.726,VALID,0,VALID,90.5891,VALID,0,VALID,19.8168,VALID,246,VALID,0.208594,
2009-11-24, 03:29:04,VALID,917.711,VALID,0,VALID,90.5052,VALID,0,VALID,19.8168,VALID,246,VALID,0,
2009-11-24, 03:30:04,VALID,917.743,VALID,0,VALID,90.6272,VALID,0,VALID,19.8183,VALID,246,VALID,0.444922,
2009-11-24, 03:31:04,VALID,917.728,VALID,0,VALID,90.0859,VALID,0,VALID,19.7988,VALID,264,VALID,1.42813,
2009-11-24, 03:32:04,VALID,917.743,VALID,0,VALID,90.7263,VALID,0,VALID,19.8378,VALID,329,VALID,0.609375,
2009-11-24, 03:33:04,VALID,917.724,VALID,0,VALID,90.9245,VALID,0,VALID,19.8183,VALID,341,VALID,0.430078,
2009-11-24, 03:34:04,VALID,917.694,VALID,0,VALID,91.0236,VALID,0,VALID,19.8183,VALID,349,VALID,0.704687,
2009-11-24, 03:35:04,VALID,917.684,VALID,0,VALID,91.2294,VALID,0,VALID,19.7778,VALID,16,VALID,0.690625,
2009-11-24, 03:36:04,VALID,917.735,VALID,0,VALID,91.5801,VALID,0.107441,VALID,19.7778,VALID,16,VALID,0.0390625,
2009-11-24, 03:37:04,VALID,917.76,VALID,0,VALID,91.8774,VALID,0,VALID,19.7598,VALID,335,VALID,0.513672,
2009-11-24, 03:38:04,VALID,917.794,VALID,0,VALID,92.2586,VALID,0,VALID,19.6998,VALID,335,VALID,0.669141,
2009-11-24, 03:39:04,VALID,917.749,VALID,0,VALID,92.4415,VALID,0,VALID,19.6608,VALID,335,VALID,0.643359,
2009-11-24, 03:40:04,VALID,917.736,VALID,0,VALID,92.8913,VALID,0,VALID,19.6218,VALID,13,VALID,1.73672,
2009-11-24, 03:41:04,VALID,917.735,VALID,0,VALID,93.5393,VALID,0,VALID,19.5633,VALID,299,VALID,1.35781,
2009-11-24, 03:42:04,VALID,917.681,VALID,0,VALID,93.5622,VALID,0,VALID,19.5243,VALID,25,VALID,2.68516,
2009-11-24, 03:43:04,VALID,917.733,VALID,0,VALID,93.829,VALID,0,VALID,19.5048,VALID,341,VALID,1.025,
2009-11-24, 03:44:04,VALID,917.702,VALID,0,VALID,93.9281,VALID,0.107441,VALID,19.5048,VALID,33,VALID,1.36211,
2009-11-24, 03:45:04,VALID,917.684,VALID,0,VALID,94.0577,VALID,0,VALID,19.4868,VALID,277,VALID,2.20469,
2009-11-24, 03:46:04,VALID,917.7,VALID,0,VALID,94.233,VALID,0,VALID,19.4673,VALID,5,VALID,1.06992,